TimePDT,TemperatureF,Dew PointF,Humidity,Sea Level PressureIn,VisibilityMPH,Wind Direction,Wind SpeedMPH,Gust SpeedMPH,PrecipitationIn,Events,Conditions,WindDirDegrees,DateUTC
12:53 AM,50.0,33.1,52,30.26,10.0,SW,9.2,-,N/A,,Clear,230,2012-10-06 07:53:00
1:53 AM,46.0,33.1,61,30.26,10.0,SW,8.1,-,N/A,,Clear,230,2012-10-06 08:53:00
2:53 AM,48.0,32.0,54,30.26,10.0,SW,10.4,-,N/A,,Clear,230,2012-10-06 09:53:00
3:53 AM,46.0,32.0,58,30.25,10.0,WSW,9.2,-,N/A,,Clear,240,2012-10-06 10:53:00
4:53 AM,46.9,30.9,54,30.25,10.0,SW,5.8,-,N/A,,Clear,230,2012-10-06 11:53:00
5:53 AM,45.0,32.0,60,30.25,10.0,SW,5.8,-,N/A,,Clear,230,2012-10-06 12:53:00
6:53 AM,44.1,33.1,65,30.26,10.0,SW,8.1,-,N/A,,Clear,230,2012-10-06 13:53:00
7:53 AM,39.9,34.0,79,30.27,10.0,Calm,Calm,-,N/A,,Clear,0,2012-10-06 14:53:00
8:53 AM,50.0,37.9,63,30.27,10.0,Calm,Calm,-,N/A,,Clear,0,2012-10-06 15:53:00
9:53 AM,59.0,37.0,44,30.27,10.0,ESE,3.5,-,N/A,,Clear,110,2012-10-06 16:53:00
10:53 AM,62.1,36.0,38,30.26,10.0,East,8.1,-,N/A,,Clear,90,2012-10-06 17:53:00
11:53 AM,60.1,37.9,44,30.25,10.0,East,9.2,-,N/A,,Clear,90,2012-10-06 18:53:00
12:53 PM,61.0,36.0,39,30.24,10.0,East,8.1,-,N/A,,Clear,90,2012-10-06 19:53:00
1:53 PM,61.0,37.0,41,30.23,10.0,East,9.2,-,N/A,,Clear,90,2012-10-06 20:53:00
2:53 PM,63.0,37.9,40,30.20,10.0,Variable,6.9,-,N/A,,Clear,0,2012-10-06 21:53:00
3:53 PM,64.0,34.0,33,30.19,10.0,East,5.8,-,N/A,,Clear,100,2012-10-06 22:53:00
4:53 PM,66.0,32.0,28,30.16,10.0,ESE,6.9,-,N/A,,Clear,120,2012-10-06 23:53:00
5:53 PM,61.0,35.1,38,30.15,10.0,ESE,6.9,-,N/A,,Clear,120,2012-10-07 00:53:00
6:53 PM,54.0,37.0,53,30.15,10.0,Calm,Calm,-,N/A,,Clear,0,2012-10-07 01:53:00
7:53 PM,50.0,37.9,63,30.14,10.0,Calm,Calm,-,N/A,,Clear,0,2012-10-07 02:53:00
8:53 PM,46.0,36.0,68,30.14,10.0,SSW,3.5,-,N/A,,Clear,200,2012-10-07 03:53:00
9:53 PM,46.9,35.1,63,30.14,10.0,SW,6.9,-,N/A,,Clear,220,2012-10-07 04:53:00
10:53 PM,51.1,34.0,52,30.14,10.0,SW,6.9,-,N/A,,Clear,230,2012-10-07 05:53:00
11:53 PM,45.0,34.0,65,30.14,10.0,Calm,Calm,-,N/A,,Clear,0,2012-10-07 06:53:00